Weather Roundup
Issued by NWS Chicago, IL

Home | Current Version | Previous Version | Graphics & Text | Print | Product List | Glossary On
Versions: 1 2 3 4 5 6 7 8 9 10 11 12 13 14 15 16 17 18 19 20 21 22 23 24 25 26 27 28 29 30 31 32 33 34 35 36 37 38 39 40 41 42 43 44 45 46 47 48 49 50
000
NZUS59 KLOT 290521
HRRLOT

CHICAGO AREA WEATHER ROUNDUP
NATIONAL WEATHER SERVICE CHICAGO/ROMEOVILLE IL
1200 AM CDT FRI MAY 29 2015

NOTE: "FAIR" INDICATES FEW OR NO CLOUDS BELOW 12,000 FEET WITH NO
SIGNIFICANT WEATHER AND/OR OBSTRUCTIONS TO VISIBILITY.

* THESE STATIONS ARE NOT UNDER NWS QUALITY CONTROL. THEY ALSO MAY NOT
  REPORT WEATHER SUCH AS PRECIPITATION OR FOG.

ILZ005-006-012>014-019>023-290600-
NORTHEAST ILLINOIS

CITY           SKY/WX    TMP DP  RH WIND       PRES   REMARKS
OHARE          MOCLDY    65  54  67 SE5       30.05F
MIDWAY         MOCLDY    69  57  65 SE6       30.05F
AURORA         CLEAR     67  55  65 SE6       30.05S
LANSING*       CLEAR     67  56  67 SE6       30.06F
JOLIET*        CLEAR     70  57  64 SE5       30.05S
WAUKEGAN       PTCLDY    59  53  80 CALM      30.06F
DUPAGE AIRPORT PTCLDY    67  55  65 SE6       30.05S
WHEELING       PTCLDY    64  54  69 CALM      30.07F
KANKAKEE*      PTCLDY    72  59  64 S7        30.07S
MORRIS*        CLEAR     69  54  58 SE6       30.03S
LEWIS AIRPORT* PTCLDY    66  55  67 SE8       30.05F
NORTHERLY IS     N/A     60  53  77 E1          N/A
$$

WIZ051-052-058>065-066-070>072-290600-
SOUTHEAST WISCONSIN

CITY           SKY/WX    TMP DP  RH WIND       PRES   REMARKS
MILWAUKEE      CLOUDY    61  53  75 S7        30.08R
KENOSHA*       PTCLDY    61  53  75 SE5       30.08S
RACINE*        PTCLDY    61  52  72 SE5       30.09S
BURLINGTON     PTCLDY    61  53  76 SE5       30.07S
WAUKESHA       PTCLDY    63  52  67 SE6       30.09S
WEST BEND      PTCLDY    63  52  67 CALM      30.08S
$$

INZ001>003-010>013-019-020-290600-
NORTHWEST INDIANA

CITY           SKY/WX    TMP DP  RH WIND       PRES   REMARKS
GARY*          CLEAR     71  59  66 SE6       30.07S
MICHIGAN CITY* NOT AVBL
RENSSELAER*    NOT AVBL
VALPARAISO     PTCLDY    69  58  67 E8        30.09S
$$

LMZ740>746-290600-
SOUTHERN LAKE MICHIGAN

STATION/POSITION TIME  SKY/WX   TEMP WIND        PRES    VSBY
                                AIR  DIR/SP/G
                 (UTC)          (F)  (DEG/KT/KT) (MB)    (MI)
HARRISON CRIB    0500            62  150/  5/  7   N/A
BURNHAM HARBOR   0500            60   CALM  /  1   N/A
CALUMET HARBOR   NOT AVBL
BURNS HARBOR     0400            75  120/ 10/ 20 1019.0F
MICHIGAN CITY    0500            72  110/  9/ 14   N/A
$$

ABBREVIATIONS USED IN REMARKS
   TC - TEMPERATURE IN CELSIUS
  WCI - WIND CHILL INDEX
   HX - HEAT INDEX
  VSB - VISIBILITY
$$


USA.gov is the U.S. government's official web portal to all federal, state and local government web resources and services.